Clarksville, TN

11:06 AM CDT on May 25, 2017 (GMT -0500)
Outlaw

Weather History for KCKV - October, 2013

Change the Weather History Date:

Wednesday, October 16, 2013

  Actual Average Record
Temperature  
Mean Temperature 62 °F 59 °F  
Max Temperature 67 °F 71 °F 91 °F (1950)
Min Temperature 56 °F 46 °F 30 °F (1961)
Degree Days  
Heating Degree Days 3 7  
Month to date heating degree days 22 81  
Since 1 July heating degree days 30 110  
Cooling Degree Days 0 1  
Month to date cooling degree days 60 22  
Year to date cooling degree days 1421  
Growing Degree Days 10 (Base 50)    
Moisture  
Dew Point 58 °F    
Average Humidity 92    
Maximum Humidity 100    
Minimum Humidity 86    
Precipitation  
Precipitation 0.29 in 0.13 in 1.64 in (1989)
Month to date precipitation 1.83 2.06  
Year to date precipitation 38.72  
Sea Level Pressure  
Sea Level Pressure 29.98 in    
Wind  
Wind Speed 5 mph (NW)    
Max Wind Speed 15 mph    
Max Gust Speed 20 mph    
Visibility 8 miles    
Events Rain    
T = Trace of Precipitation, MM = Missing Value Source: NWS Daily Summary

Daily Weather History Graph

Daily Weather History Graph

Search for Another Location

Airport or City:

Trip Planner

Search our weather history database for the weather conditions in past years. The results will help you decide how hot, cold, wet, or windy it might be!

Date:

Astronomy

Oct. 16, 2013 Rise Set
Actual Time 6:58 AM CDT 6:11 PM CDT
Civil Twilight 6:32 AM CDT 6:37 PM CDT
Nautical Twilight 6:02 AM CDT 7:07 PM CDT
Astronomical Twilight 5:32 AM CDT 7:37 PM CDT
Moon 4:48 PM CDT (10/16) 4:28 AM CDT (10/16)
Length of Visible Light 12h 05m
Length of Day
11h 13m
Waxing Gibbous, 94% of the Moon is Illuminated
Oct 16
Waxing Gibbous
Oct 18
Full
Oct 26
Last Quarter
Nov 3
New
Nov 9
First Quarter

Hourly Weather History & Observations

Time (CDT) Temp. Dew Point Humidity Pressure Visibility Wind Dir Wind Speed Gust Speed Precip Events Conditions
12:52 AM 66.9 °F 62.1 °F 84% 29.96 in 10.0 mi SSW 6.9 mph - N/A   Partly Cloudy
1:52 AM 66.0 °F 63.0 °F 90% 29.96 in 10.0 mi SSW 3.5 mph - N/A   Overcast
2:52 AM 66.0 °F 63.0 °F 90% 29.94 in 10.0 mi South 6.9 mph - 0.00 in   Mostly Cloudy
3:29 AM 66.2 °F 62.6 °F 88% 29.96 in 10.0 mi SW 4.6 mph - N/A   Overcast
3:52 AM 66.0 °F 63.0 °F 90% 29.95 in 10.0 mi SSW 5.8 mph - N/A   Overcast
4:17 AM 66.2 °F 62.6 °F 88% 29.96 in 10.0 mi SW 4.6 mph - N/A   Overcast
4:33 AM 66.2 °F 62.6 °F 88% 29.96 in 10.0 mi SW 4.6 mph - N/A   Overcast
4:52 AM 66.0 °F 64.0 °F 93% 29.95 in 10.0 mi SW 3.5 mph - N/A   Overcast
5:29 AM 66.2 °F 62.6 °F 88% 29.96 in 10.0 mi SSW 5.8 mph - N/A   Scattered Clouds
5:52 AM 64.9 °F 64.0 °F 97% 29.96 in 10.0 mi SSW 3.5 mph - N/A   Mostly Cloudy
6:52 AM 64.9 °F 64.0 °F 97% 29.96 in 10.0 mi South 3.5 mph - 0.01 in   Overcast
7:17 AM 64.4 °F 64.4 °F 100% 29.97 in 7.0 mi South 3.5 mph - 0.01 in Rain Light Rain
7:28 AM 64.4 °F 64.4 °F 100% 29.97 in 7.0 mi SSE 3.5 mph - 0.01 in Rain Light Rain
7:45 AM 64.4 °F 64.4 °F 100% 29.97 in 7.0 mi South 3.5 mph - 0.01 in Rain Light Rain
7:52 AM 64.9 °F 64.0 °F 97% 29.97 in 4.0 mi NW 9.2 mph - 0.01 in Rain Light Rain
8:05 AM 62.6 °F 60.8 °F 94% 29.99 in 2.5 mi North 10.4 mph - 0.02 in Rain Light Rain
8:12 AM 60.8 °F 57.2 °F 88% 29.99 in 3.0 mi North 11.5 mph - 0.05 in Rain Rain
8:36 AM 59.0 °F 57.2 °F 94% 30.00 in 6.0 mi NW 9.2 mph - 0.07 in Rain Light Rain
8:52 AM 57.9 °F 55.0 °F 90% 30.00 in 10.0 mi NNW 11.5 mph - 0.09 in Rain Light Rain
9:02 AM 57.2 °F 55.4 °F 94% 30.01 in 3.0 mi NNW 11.5 mph - 0.02 in Rain Rain
9:14 AM 57.2 °F 55.4 °F 94% 30.01 in 7.0 mi North 8.1 mph - 0.03 in Rain Light Rain
9:24 AM 59.0 °F 57.2 °F 94% 30.02 in 6.0 mi North 8.1 mph - 0.04 in Rain Light Rain
9:34 AM 57.2 °F 55.4 °F 94% 30.02 in 4.0 mi NNW 10.4 mph - 0.05 in Rain Light Rain
9:52 AM 57.9 °F 55.9 °F 93% 30.01 in 8.0 mi NNW 8.1 mph - 0.06 in Rain Light Rain
10:52 AM 57.0 °F 54.0 °F 89% 30.01 in 7.0 mi North 6.9 mph - 0.03 in Rain Light Rain
11:29 AM 57.2 °F 55.4 °F 94% 30.02 in 1.8 mi North - - 0.04 in Rain Rain
11:36 AM 57.2 °F 53.6 °F 88% 30.02 in - North 5.8 mph - 0.05 in   Unknown
11:45 AM 55.4 °F 55.4 °F 100% 30.02 in 2.0 mi NNW 4.6 mph - 0.06 in Rain Light Rain
11:52 AM 55.9 °F 54.0 °F 93% 30.01 in 5.0 mi North 5.8 mph - 0.06 in Rain Light Rain
12:06 PM 57.2 °F 53.6 °F 88% 30.01 in 7.0 mi North 5.8 mph - 0.01 in Rain Light Rain
12:18 PM 57.2 °F 55.4 °F 94% 30.01 in 10.0 mi North 3.5 mph - 0.01 in Rain Light Rain
12:32 PM 57.2 °F 55.4 °F 94% 30.00 in 7.0 mi Calm Calm - 0.02 in Rain Light Rain
12:48 PM 57.2 °F 55.4 °F 94% 30.00 in 6.0 mi North 3.5 mph - 0.03 in Rain Light Rain
12:52 PM 57.9 °F 55.0 °F 90% 30.00 in 7.0 mi NW 3.5 mph - 0.03 in Rain Light Rain
1:13 PM 59.0 °F 55.4 °F 88% 29.99 in 6.0 mi Calm Calm - 0.00 in   Overcast
1:26 PM 59.0 °F 55.4 °F 88% 29.98 in 10.0 mi NW 3.5 mph - 0.00 in   Overcast
1:52 PM 59.0 °F 55.9 °F 90% 29.96 in 10.0 mi North 4.6 mph - 0.00 in   Overcast
2:52 PM 59.0 °F 55.9 °F 90% 29.97 in 10.0 mi NNW 5.8 mph - 0.00 in Rain Light Rain
3:49 PM 59.0 °F 55.4 °F 88% 29.97 in 10.0 mi NNW 6.9 mph - 0.00 in   Overcast
3:52 PM 59.0 °F 55.0 °F 87% 29.97 in 10.0 mi NNW 8.1 mph - 0.00 in   Overcast
4:52 PM 59.0 °F 55.0 °F 87% 29.96 in 10.0 mi North 3.5 mph - 0.00 in   Overcast
5:52 PM 59.0 °F 55.0 °F 87% 29.96 in 10.0 mi Calm Calm - N/A   Overcast
6:52 PM 59.0 °F 55.9 °F 90% 29.96 in 10.0 mi Calm Calm - N/A   Overcast
7:52 PM 57.9 °F 55.9 °F 93% 29.97 in 10.0 mi Calm Calm - N/A   Overcast
8:32 PM 57.2 °F 53.6 °F 88% 29.98 in 10.0 mi North 3.5 mph - N/A   Mostly Cloudy
8:52 PM 55.9 °F 54.0 °F 93% 29.98 in 10.0 mi North 3.5 mph - N/A   Mostly Cloudy
9:52 PM 57.0 °F 55.0 °F 93% 29.98 in 10.0 mi Calm Calm - N/A   Overcast
10:52 PM 57.0 °F 54.0 °F 89% 29.97 in 10.0 mi Calm Calm - N/A   Overcast
11:52 PM 57.0 °F 55.0 °F 93% 29.96 in 10.0 mi Calm Calm - N/A   Overcast